HB9FHL-13 Weather Reports


Display with metric or nautical units.
time (UTC)temp
F
wind
direction
speed
MPH
gust
MPH
rain 1hr
in
rain 24hr
in
rain mn
in
humidity
%
barometer
mb
20260506170536 51 238 11.0 22.0 0.00 0.00 0.38 1007.8
20260506170035 53 219 8.0 16.0 0.00 0.00 0.38 1002.9
20260506165535 50 250 8.0 15.0 0.00 0.00 0.38 1006.9
20260506165034 50 229 9.0 18.0 0.00 0.00 0.38 1010.9
20260506164533 52 242 9.0 16.0 0.00 0.00 0.37 1013.7
20260506164033 53 225 9.0 16.0 0.00 0.00 0.37 1006.8
20260506163532 50 240 9.0 15.0 0.00 0.00 0.37 1001.9
20260506163032 50 264 9.0 15.0 0.00 0.00 0.37 1020.1
20260506162531 50 236 7.0 11.0 0.00 0.00 0.37 1006.5
20260506161519 49 236 9.0 15.0 0.00 0.00 0.37 1011.3
20260506161018 49 231 7.0 12.0 0.00 0.00 0.37 1002.7
20260506160517 52 240 7.0 15.0 0.00 0.00 0.37 1013.3
20260506160017 50 221 9.0 15.0 0.00 0.00 0.37 1009.0
20260506155516 50 239 8.0 14.0 0.00 0.00 0.37 1008.5
20260506155016 51 229 8.0 19.0 0.00 0.00 0.37 1002.5
20260506154518 52 246 8.0 20.0 0.00 0.00 0.37 1014.6
20260506154015 49 218 6.0 10.0 0.00 0.00 0.37 1009.5
20260506153514 50 253 6.0 11.0 0.00 0.00 0.37 1010.1
20260506153014 51 226 7.0 12.0 0.00 0.00 0.37 1014.9
20260506152512 50 225 6.0 10.0 0.00 0.00 0.37 1012.4
20260506152011 49 308 5.0 9.0 0.00 0.00 0.37 1008.4
20260506151510 50 249 3.0 6.0 0.00 0.00 0.37 1007.5
20260506151009 48 255 3.0 6.0 0.00 0.00 0.37 1007.5
20260506150509 49 228 2.0 4.0 0.00 0.00 0.37 1006.5
20260506150008 49 243 1.0 4.0 0.00 0.00 0.37 1008.9
20260506145507 49 284 2.0 7.0 0.00 0.00 0.37 1008.8
20260506145007 51 256 2.0 4.0 0.00 0.00 0.37 1009.0
20260506144504 50 266 2.0 4.0 0.00 0.00 0.37 1008.9
20260506144003 50 239 2.0 4.0 0.00 0.00 0.37 1008.4
20260506143503 50 243 2.0 5.0 0.00 0.00 0.37 1006.9
20260506143002 50 256 4.0 7.0 0.00 0.00 0.37 1006.7
20260506142502 51 270 2.0 4.0 0.00 0.00 0.37 1007.7
20260506142000 50 305 3.0 6.0 0.00 0.00 0.37 1009.5
20260506141458 50 256 5.0 7.0 0.00 0.00 0.37 1006.6
20260506140456 50 242 8.0 12.0 0.00 0.00 0.37 1010.4
20260506135956 49 243 9.0 15.0 0.00 0.00 0.36 1012.5
20260506135455 50 239 9.0 17.0 0.00 0.00 0.36 1006.9
20260506134955 48 231 9.0 13.0 0.00 0.00 0.36 1000.1
20260506134454 52 240 10.0 17.0 0.00 0.00 0.35 1005.0
20260506133452 49 236 9.0 15.0 0.00 0.00 0.33 1009.1
20260506132951 50 239 11.0 17.0 0.00 0.00 0.32 1011.5
20260506132451 50 239 10.0 17.0 0.00 0.00 0.31 1010.1
20260506131950 50 212 11.0 18.0 0.00 0.00 0.30 1009.8
20260506131450 51 242 12.0 20.0 0.00 0.00 0.29 1005.8
20260506130447 49 238 11.0 20.0 0.00 0.00 0.27 999.1
20260506125947 47 240 12.0 20.0 0.00 0.00 0.25 1017.3
20260506125446 49 238 13.0 20.0 0.00 0.00 0.22 1011.6
20260506124946 48 231 13.0 24.0 0.00 0.00 0.19 1003.8
20260506124445 50 246 11.0 18.0 0.00 0.00 0.16 1006.0
20260506123945 50 245 10.0 18.0 0.00 0.00 0.14 1004.4
20260506123444 51 238 11.0 18.0 0.00 0.00 0.12 996.4
20260506122943 49 233 13.0 26.0 0.00 0.00 0.09 1002.9
20260506122443 49 225 9.0 23.0 0.00 0.00 0.06 1006.9
20260506121943 52 283 4.0 8.0 0.00 0.00 0.03 1005.6
20260506121443 51 245 5.0 8.0 0.00 0.00 0.02 1004.7
20260506120441 52 262 6.0 9.0 0.00 0.00 0.01 1004.8
20260506115940 51 280 4.0 7.0 0.00 0.00 0.01 1005.2
20260506115438 52 257 4.0 6.0 0.00 0.00 0.01 1004.8
20260506114937 52 256 3.0 6.0 0.00 0.00 0.00 1005.2
20260506114437 52 235 6.0 12.0 0.00 0.00 0.00 1005.2
20260506113437 53 266 6.0 9.0 0.00 0.00 0.00 1006.9
20260506112937 53 253 5.0 9.0 0.00 0.00 0.00 1001.9
20260506112434 54 243 1.0 4.0 0.00 0.00 0.00 1003.7
20260506111935 55 328 1.0 4.0 0.00 0.00 0.00 1004.2
20260506111432 55 1 1.0 4.0 0.00 0.00 0.00 1005.2
20260506110428 54 18 1.0 4.0 0.00 0.00 0.00 1007.0
20260506105928 56 328 1.0 4.0 0.00 0.00 0.00 1004.0
20260506105427 55 6 1.0 3.0 0.00 0.00 0.00 1007.7
20260506104426 54 30 3.0 5.0 0.00 0.00 0.00 1005.5
20260506103926 55 359 2.0 5.0 0.00 0.00 0.00 1005.9
20260506103425 55 37 3.0 5.0 0.00 0.00 0.00 997.8
20260506102923 53 1 2.0 5.0 0.00 0.00 0.00 1006.5
20260506102422 54 20 1.0 4.0 0.00 0.00 0.00 1008.1
20260506101922 54 18 1.0 4.0 0.00 0.00 0.00 1007.1
20260506101421 55 23 3.0 5.0 0.00 0.00 0.00 1004.9
20260506100920 55 30 4.0 7.0 0.00 0.00 0.00 1006.8
20260506100420 54 24 2.0 3.0 0.00 0.00 0.00 1004.9
20260506095920 54 25 3.0 7.0 0.00 0.00 0.00 1003.8
20260506095416 55 41 3.0 6.0 0.00 0.00 0.00 1002.9
20260506094916 55 11 5.0 8.0 0.00 0.00 0.00 1007.1
20260506094415 55 84 4.0 6.0 0.00 0.00 0.00 1006.5
20260506093914 55 58 4.0 7.0 0.00 0.00 0.00 1006.6
20260506093412 54 15 2.0 8.0 0.00 0.00 0.00 1004.6
20260506092912 55 18 2.0 6.0 0.00 0.00 0.00 1006.8
20260506092411 54 290 0.0 3.0 0.00 0.00 0.00 1005.4
20260506091911 55 332 2.0 6.0 0.00 0.00 0.00 1004.9
20260506091409 54 322 1.0 4.0 0.00 0.00 0.00 1004.2
20260506090908 54 338 1.0 5.0 0.00 0.00 0.00 1004.4
20260506090408 55 55 3.0 6.0 0.00 0.00 0.00 1007.2
20260506085909 54 39 2.0 5.0 0.00 0.00 0.00 1005.4
20260506085407 54 264 1.0 4.0 0.00 0.00 0.00 1007.7
20260506084906 54 326 2.0 5.0 0.00 0.00 0.00 1006.0
20260506084405 54 330 1.0 5.0 0.00 0.00 0.00 1009.4
20260506083904 54 330 1.0 5.0 0.00 0.00 0.00 1006.0
20260506083404 53 329 1.0 4.0 0.00 0.00 0.00 1005.6
20260506082903 53 240 0.0 0.0 0.00 0.00 0.00 1010.0
20260506082403 52 259 0.0 3.0 0.00 0.00 0.00 1005.4
20260506081903 53 333 1.0 2.0 0.00 0.00 0.00 1005.8
20260506081357 52 322 0.0 3.0 0.00 0.00 0.00 1007.4
20260506080857 54 293 0.0 2.0 0.00 0.00 0.00 1008.0
20260506080357 54 332 1.0 3.0 0.00 0.00 0.00 1006.6
20260506073354 53 336 2.0 4.0 0.00 0.00 0.00 1007.1
20260506072853 52 0 0.0 0.0 0.00 0.00 0.00 1005.0
20260506072353 53 264 1.0 2.0 0.00 0.00 0.00 1006.7
20260506071852 53 0 0.0 0.0 0.00 0.00 0.00 1001.9
20260506071352 52 0 0.0 0.0 0.00 0.00 0.00 1003.2
20260506070851 53 255 1.0 2.0 0.00 0.00 0.00 1006.1
20260506070351 52 245 0.0 3.0 0.00 0.00 0.00 1004.7
20260506062346 52 41 1.0 3.0 0.00 0.00 0.00 1005.4
20260506061846 53 17 3.0 4.0 0.00 0.00 0.00 1007.8
20260506061344 53 60 2.0 5.0 0.00 0.00 0.00 1009.1
20260506060843 53 89 2.0 2.0 0.00 0.00 0.00 1007.2
20260506060342 53 101 2.0 3.0 0.00 0.00 0.00 1009.8
20260506051337 52 0 0.0 0.0 0.00 0.00 0.00 1005.4
20260506050836 53 0 0.0 0.0 0.00 0.00 0.00 1001.2
20260506050336 52 0 0.0 0.0 0.00 0.00 0.00 1007.6
20260506044833 52 0 0.0 0.0 0.00 0.00 0.00 1006.8
20260506044329 53 120 1.0 5.0 0.00 0.00 0.00 1006.2
20260506043829 53 155 1.0 4.0 0.00 0.00 0.00 1005.9
20260506043328 52 98 0.0 4.0 0.00 0.00 0.00 1004.6
20260506042828 51 0 0.0 0.0 0.00 0.00 0.00 1005.6
20260506042327 51 0 0.0 0.0 0.00 0.00 0.00 1009.0
20260506041827 51 0 0.0 0.0 0.00 0.00 0.00 1004.5
20260506041326 51 0 0.0 0.0 0.00 0.00 0.00 1006.2
20260506040826 53 121 1.0 4.0 0.00 0.00 0.00 1007.2
20260506040323 52 98 1.0 4.0 0.00 0.00 0.00 1006.6
20260506035822 54 131 0.0 2.0 0.00 0.00 0.00 1004.7
20260506035320 53 0 0.0 0.0 0.00 0.00 0.00 1008.6
20260506034819 51 0 0.0 0.0 0.00 0.00 0.00 1007.1
20260506034318 52 0 0.0 0.0 0.00 0.00 0.00 1007.4
20260506033317 54 0 0.0 0.0 0.00 0.00 0.00 1007.1
20260506032316 54 0 0.0 0.0 0.00 0.00 0.00 1005.4
20260506031816 53 93 0.0 1.0 0.00 0.00 0.00 1008.3
20260506031316 53 0 0.0 0.0 0.00 0.00 0.00 1011.4
20260506030815 53 0 0.0 0.0 0.00 0.00 0.00 1005.7
20260506030311 52 0 0.0 0.0 0.00 0.00 0.00 1007.2
20260506025810 53 0 0.0 0.0 0.00 0.00 0.00 1008.9
20260506025310 53 6 0.0 1.0 0.00 0.00 0.00 1010.6
20260506024809 54 0 0.0 0.0 0.00 0.00 0.00 1008.0
20260506024309 53 236 0.0 0.0 0.00 0.00 0.00 1006.4
20260506023808 52 132 0.0 2.0 0.00 0.00 0.00 1007.5
20260506023308 52 121 0.0 2.0 0.00 0.00 0.00 1010.8
20260506022807 53 0 0.0 0.0 0.00 0.00 0.00 1006.4
20260506022307 53 0 0.0 0.0 0.00 0.00 0.00 1006.8
20260506021806 53 0 0.0 0.0 0.00 0.00 0.00 1008.8
20260506021306 53 201 0.0 0.0 0.00 0.00 0.00 1009.0
20260506020805 53 0 0.0 0.0 0.00 0.00 0.00 1008.4
20260506020305 54 0 0.0 0.0 0.00 0.00 0.00 1011.0
20260506015804 55 0 0.0 0.0 0.00 0.00 0.00 1005.8
20260506015306 54 0 0.0 0.0 0.00 0.00 0.00 1008.7
20260506014803 54 233 1.0 3.0 0.00 0.00 0.00 1009.8
20260506014303 54 215 4.0 7.0 0.00 0.00 0.00 1008.7
20260506013802 54 225 4.0 6.0 0.00 0.00 0.00 1007.7
20260506013302 55 249 4.0 8.0 0.00 0.00 0.00 1011.4
20260506012801 55 233 4.0 9.0 0.00 0.00 0.00 1013.3
20260506011800 55 217 4.0 9.0 0.00 0.00 0.00 1009.1
20260506011300 54 238 5.0 15.0 0.00 0.00 0.00 1009.9
20260506010759 54 226 6.0 13.0 0.00 0.00 0.00 1005.4
20260506010259 56 240 8.0 14.0 0.00 0.00 0.00 1010.6
20260506005756 56 225 6.0 11.0 0.00 0.00 0.00 1004.9
20260506005256 55 232 6.0 10.0 0.00 0.00 0.00 1005.9
20260506004756 53 228 6.0 12.0 0.00 0.00 0.00 1006.5
20260506004255 54 222 5.0 9.0 0.00 0.00 0.00 1007.5
20260506003755 55 233 5.0 8.0 0.00 0.00 0.00 1009.7
20260506003254 56 229 6.0 10.0 0.00 0.00 0.00 1012.4
20260506002754 55 232 4.0 6.0 0.00 0.00 0.00 1008.7
20260506002253 56 229 5.0 9.0 0.00 0.00 0.00 1004.7
20260506001753 55 243 6.0 10.0 0.00 0.00 0.00 1007.2
20260506001254 56 233 7.0 11.0 0.00 0.00 0.00 1010.0
20260506000752 54 252 2.0 10.0 0.00 0.00 0.00 1009.3
20260506000251 54 0 0.0 0.0 0.00 0.00 0.00 1009.8
20260505235751 56 228 1.0 5.0 0.00 0.00 0.00 1006.5
20260505235250 55 232 5.0 11.0 0.00 0.00 0.00 1009.7
20260505234750 55 253 3.0 6.0 0.00 0.00 0.00 1010.5
20260505234249 55 243 3.0 5.0 0.00 0.00 0.00 1008.6
20260505233749 56 225 3.0 6.0 0.00 0.00 0.00 1007.0
20260505233248 55 240 5.0 9.0 0.00 0.00 0.00 1010.7
20260505232748 57 243 4.0 7.0 0.00 0.00 0.00 1013.0
20260505232247 55 217 5.0 9.0 0.00 0.00 0.00 1004.2
20260505231748 56 243 6.0 10.0 0.00 0.00 0.00 1007.2
20260505231246 55 240 6.0 10.0 0.00 0.00 0.00 1009.6
20260505230746 56 243 6.0 9.0 0.00 0.00 0.00 1008.1
20260505230245 55 208 6.0 11.0 0.00 0.00 0.00 1008.3
20260505225745 55 228 6.0 10.0 0.00 0.00 0.00 1007.1
20260505225244 56 225 5.0 9.0 0.00 0.00 0.00 1007.0
20260505224744 57 232 7.0 11.0 0.00 0.00 0.00 1007.0
20260505224243 56 225 4.0 10.0 0.00 0.00 0.00 1011.3
20260505223742 56 252 4.0 9.0 0.00 0.00 0.00 1011.7
20260505223242 56 238 5.0 7.0 0.00 0.00 0.00 1013.2
20260505222741 56 217 6.0 11.0 0.00 0.00 0.00 1011.7
20260505222243 55 221 5.0 10.0 0.00 0.00 0.00 1003.0
20260505221740 55 212 5.0 9.0 0.00 0.00 0.00 1013.9
20260505221240 55 240 3.0 9.0 0.00 0.00 0.00 1008.7
20260505220739 55 238 3.0 7.0 0.00 0.00 0.00 1010.6
20260505220236 54 221 4.0 6.0 0.00 0.00 0.00 1010.0
20260505215736 55 246 3.0 6.0 0.00 0.00 0.00 1006.4
20260505215235 55 238 4.0 7.0 0.00 0.00 0.00 1009.6
20260505214735 56 243 4.0 8.0 0.00 0.00 0.00 1009.6
20260505214234 54 231 4.0 9.0 0.00 0.00 0.00 1007.1
20260505213738 55 236 4.0 8.0 0.00 0.00 0.00 1009.8
20260505213233 57 231 4.0 8.0 0.00 0.00 0.00 1008.3
20260505212733 55 245 5.0 9.0 0.00 0.00 0.00 1005.9
20260505212232 55 233 5.0 10.0 0.00 0.00 0.00 1009.1
20260505211732 54 221 5.0 9.0 0.00 0.00 0.00 1011.8
20260505211230 55 214 7.0 13.0 0.00 0.00 0.00 1010.5
20260505210729 57 231 6.0 13.0 0.00 0.00 0.00 1006.2
20260505210225 57 232 8.0 14.0 0.00 0.00 0.00 1009.8
20260505205725 56 231 7.0 14.0 0.00 0.00 0.00 1002.9
20260505205224 56 232 6.0 11.0 0.00 0.00 0.00 1007.4
20260505204219 55 252 6.0 10.0 0.00 0.00 0.00 1006.6
20260505203719 55 222 6.0 11.0 0.00 0.00 0.00 1007.8
20260505203218 55 242 7.0 10.0 0.00 0.00 0.00 1010.6
20260505202217 55 235 7.0 12.0 0.00 0.00 0.00 1011.7
20260505201716 54 215 6.0 10.0 0.00 0.00 0.00 1007.7
20260505201216 54 231 6.0 9.0 0.00 0.00 0.00 1004.2
20260505200716 55 229 5.0 9.0 0.00 0.00 0.00 1008.0
20260505200215 55 222 5.0 10.0 0.00 0.00 0.00 1012.6
20260505200157 55 243 7.0 12.0 0.00 0.00 0.00 1009.5
20260505195715 55 243 7.0 12.0 0.00 0.00 0.00 1009.5
20260505195619 54 222 7.0 12.0 0.00 0.00 0.00 1008.4
20260505195214 54 222 7.0 12.0 0.00 0.00 0.00 1008.4
20260505194714 54 212 6.0 11.0 0.00 0.00 0.00 1001.5
20260505194213 53 215 5.0 8.0 0.00 0.00 0.00 1008.1
20260505193713 54 214 5.0 11.0 0.00 0.00 0.00 1007.4
20260505193212 55 240 6.0 13.0 0.00 0.00 0.00 1007.2
20260505192712 55 242 7.0 17.0 0.00 0.00 0.00 1012.2
20260505192211 56 200 7.0 11.0 0.00 0.00 0.00 1011.3
20260505191711 55 233 6.0 10.0 0.00 0.00 0.00 1010.6
20260505191210 55 225 6.0 11.0 0.00 0.00 0.00 1004.5
20260505190710 56 229 6.0 13.0 0.00 0.00 0.00 1009.5
20260505190209 53 226 6.0 13.0 0.00 0.00 0.00 1014.2
20260505185709 52 226 6.0 11.0 0.00 0.00 0.00 1004.8
20260505185208 53 215 5.0 11.0 0.00 0.00 0.00 1004.6
20260505184708 54 226 7.0 12.0 0.00 0.00 0.00 1002.7
20260505184207 54 232 8.0 15.0 0.00 0.00 0.00 1004.9
20260505183707 53 233 7.0 12.0 0.00 0.00 0.00 1006.0
20260505183206 56 222 9.0 14.0 0.00 0.00 0.00 1005.1
20260505182704 55 236 11.0 17.0 0.00 0.00 0.00 1020.1
20260505182205 53 233 10.0 19.0 0.00 0.00 0.00 1006.9
20260505181703 53 231 12.0 18.0 0.00 0.00 0.00 1015.8
20260505181203 53 240 13.0 21.0 0.00 0.00 0.00 1018.1
20260505180702 55 242 13.0 21.0 0.00 0.00 0.00 1008.9
20260505180202 54 233 12.0 19.0 0.00 0.00 0.00 1006.6
20260505175701 52 240 13.0 23.0 0.00 0.00 0.00 1012.5
20260505175201 53 242 14.0 22.0 0.00 0.00 0.00 1006.1
20260505174700 53 231 12.0 20.0 0.00 0.00 0.00 1010.9
20260505174159 52 238 11.0 21.0 0.00 0.00 0.00 1001.6
20260505173659 55 203 11.0 18.0 0.00 0.00 0.00 1011.0
20260505173158 55 226 11.0 17.0 0.00 0.00 0.00 1006.1
20260505172658 54 211 12.0 20.0 0.00 0.00 0.00 1007.6
20260505172157 53 221 13.0 20.0 0.00 0.00 0.00 1006.4
20260505171657 54 233 14.0 28.0 0.00 0.00 0.00 1007.8
20260505171156 55 229 12.0 20.0 0.00 0.00 0.00 1008.5
20260505170655 56 242 12.0 20.0 0.00 0.00 0.00 1018.1